Regional Weather Roundup
Issued by NWS

Home | Current Version | Previous Version | Text Only | Print | Product List | Glossary On
Versions: 1 2 3 4 5 6 7 8 9 10 11 12 13 14 15 16 17 18 19 20 21 22 23 24 25 26 27 28 29 30 31 32 33 34 35 36 37 38 39 40 41 42 43 44 45 46 47 48 49 50
000
ASUS44 KOUN 262210
RWROK

WEATHER ROUNDUP FOR OKLAHOMA
NATIONAL WEATHER SERVICE NORMAN OK
400 PM CST MON JAN 26 2015

NOTE: "FAIR" INDICATES FEW OR NO CLOUDS BELOW 12,000 FEET WITH NO
      SIGNIFICANT WEATHER AND/OR OBSTRUCTIONS TO VISIBILITY.

OKZ001>007-009>012-014-015-017-262300-
NORTHWEST OKLAHOMA AND THE PANHANDLE

CITY           SKY/WX    TMP DP  RH WIND       PRES   REMARKS
GAGE           SUNNY     74  30  19 NW16      30.09S
ENID/WOODRING  MOSUNNY   75  36  23 NW15G21   30.01R
$$

OKZ016-021>023-033>039-044-045-262300-
SOUTHWEST OKLAHOMA

CITY           SKY/WX    TMP DP  RH WIND       PRES   REMARKS
LAWTON/REGL    SUNNY     78  32  18 W12       30.04F
LAWTON/FT SILL SUNNY     78  35  21 W10       30.04F
FREDERICK      SUNNY     79  29  16 W15       30.03F
CLINTON        SUNNY     73  34  23 NW17      30.09S
HOBART         SUNNY     76  31  19 NW16      30.07S
ALTUS AFB      SUNNY     80  33  18 NW16G22   30.06S
$$

OKZ018>020-024>031-262300-
CENTRAL OKLAHOMA

CITY           SKY/WX    TMP DP  RH WIND       PRES   REMARKS
OKLAHOMA CITY  MOSUNNY   76  30  18 NW16      30.03S
OKC/WILEY POST SUNNY     75  32  20 NW13      30.03S
OKC/TINKER AFB SUNNY     74  33  22 NW17      30.02S
STILLWATER     SUNNY     74  33  22 W10       30.00S
GUTHRIE        SUNNY     74  32  21 W17G24    30.01S
$$

OKZ008-013-054>072-262300-
NORTHEAST OKLAHOMA

CITY           SKY/WX    TMP DP  RH WIND       PRES   REMARKS
TULSA          MOSUNNY   70  35  27 W10       29.96F
TULSA/JONES    SUNNY     70  34  26 W7        29.97F
PONCA CITY     SUNNY     73  34  23 NW16G22   29.98S
BARTLESVILLE   SUNNY     70  36  28 NW7       29.98S
MUSKOGEE       SUNNY     67  34  29 W9        29.99F
$$

OKZ032-040>043-046>053-073>077-262300-
SOUTH CENTRAL/SOUTHEAST OKLAHOMA

CITY           SKY/WX    TMP DP  RH WIND       PRES   REMARKS
ARDMORE/DWNTWN SUNNY     72  34  25 W12       30.05S
MCALESTER      SUNNY     71  33  24 W15       30.01F
$$



USA.gov is the U.S. government's official web portal to all federal, state and local government web resources and services.